Weather History for Elmendorf AFB, AK

Change the Weather History Date:

Tuesday, January 22, 2013

  Actual Average Record
Temperature  
Mean Temperature 27 °F -  
Max Temperature 30 °F 19 °F 44 °F (1977)
Min Temperature 24 °F 8 °F -22 °F (1971)
Degree Days  
Heating Degree Days 38    
Moisture  
Dew Point 23 °F    
Average Humidity 80    
Maximum Humidity 89    
Minimum Humidity 73    
Precipitation  
Precipitation 0.00 in - - ()
Sea Level Pressure  
Sea Level Pressure 29.58 in    
Wind  
Wind Speed 4 mph (ENE)    
Max Wind Speed 8 mph    
Max Gust Speed -    
Visibility 10 miles    
Events      
Averages and records for this station are not official NWS values.
T = Trace of Precipitation, MM = Missing Value Source: NWS Daily Summary

Daily Weather History Graph

Daily Weather History Graph

Search for Another Location

Airport:

Trip Planner

Search our weather history database for the weather conditions in past years. The results will help you decide how hot, cold, wet, or windy it might be!

Date:

Astronomy

Jan. 22, 2013 Rise Set
Actual Time 9:42 AM AKST 4:40 PM AKST
Civil Twilight 8:49 AM AKST 5:33 PM AKST
Nautical Twilight 7:54 AM AKST 6:28 PM AKST
Astronomical Twilight 7:02 AM AKST 7:19 PM AKST
Moon 12:54 PM AKST (1/22) 6:28 AM AKST (1/22)
Length of Visible Light 8h 44m
Length of Day
6h 57m
Waxing Gibbous, 84% of the Moon is Illuminated
Jan 22
Waxing Gibbous
Jan 26
Full
Feb 3
Last Quarter
Feb 9
New
Feb 17
First Quarter

Hourly Weather History & Observations

Time (AKST) Temp. Windchill Dew Point Humidity Pressure Visibility Wind Dir Wind Speed Gust Speed Precip Events Conditions
12:55 AM 25.3 °F 19.7 °F 22.5 °F 89% 29.73 in 10.0 mi ESE 4.6 mph - N/A   Mostly Cloudy
1:55 AM 24.8 °F 19.1 °F 21.7 °F 88% 29.71 in 10.0 mi East 4.6 mph - N/A   Scattered Clouds
2:55 AM 28.0 °F 21.7 °F 22.1 °F 78% 29.69 in 10.0 mi ENE 5.8 mph - N/A   Overcast
3:55 AM 27.9 °F 22.6 °F 22.5 °F 80% 29.67 in 10.0 mi ENE 4.6 mph - N/A   Scattered Clouds
4:55 AM 26.6 °F - 22.5 °F 84% 29.66 in 10.0 mi Calm Calm - N/A   Scattered Clouds
5:22 AM 26.6 °F - 23.0 °F 86% 29.65 in 10.0 mi Calm Calm - N/A   Light Freezing Rain
5:29 AM 26.6 °F - 23.0 °F 86% 29.65 in 10.0 mi Calm Calm - N/A   Mostly Cloudy
5:55 AM 26.8 °F 19.3 °F 22.3 °F 83% 29.64 in 10.0 mi NE 6.9 mph - 0.00 in   Scattered Clouds
6:55 AM 28.2 °F 22.0 °F 22.3 °F 78% 29.62 in 10.0 mi East 5.8 mph - N/A   Overcast
7:55 AM 27.3 °F 22.0 °F 22.1 °F 81% 29.60 in 10.0 mi Variable 4.6 mph - N/A   Overcast
8:55 AM 27.0 °F - 22.1 °F 82% 29.61 in 10.0 mi Calm Calm - N/A   Mostly Cloudy
9:55 AM 28.0 °F 20.0 °F 22.5 °F 80% 29.61 in 10.0 mi East 8.1 mph - N/A   Partly Cloudy
10:55 AM 28.4 °F 20.4 °F 22.3 °F 78% 29.59 in 10.0 mi ENE 8.1 mph - N/A   Clear
11:55 AM 28.2 °F - 22.8 °F 80% 29.58 in 10.0 mi Calm Calm - N/A   Clear
12:55 PM 28.0 °F 22.8 °F 23.2 °F 82% 29.57 in 10.0 mi East 4.6 mph - N/A   Clear
1:55 PM 29.5 °F - 22.6 °F 76% 29.56 in 10.0 mi Calm Calm - N/A   Clear
2:55 PM 28.2 °F - 23.2 °F 81% 29.55 in 10.0 mi Calm Calm - N/A   Clear
3:55 PM 30.2 °F 26.7 °F 22.5 °F 73% 29.52 in 10.0 mi NE 3.5 mph - N/A   Clear
4:55 PM 30.2 °F - 22.8 °F 74% 29.50 in 10.0 mi Calm Calm - N/A   Clear
5:55 PM 29.8 °F 26.3 °F 23.2 °F 76% 29.49 in 10.0 mi NNE 3.5 mph - N/A   Partly Cloudy
6:55 PM 28.9 °F 25.2 °F 23.7 °F 81% 29.48 in 10.0 mi Variable 3.5 mph - N/A   Clear
7:55 PM 29.1 °F 24.1 °F 23.5 °F 80% 29.47 in 10.0 mi NE 4.6 mph - N/A   Clear
8:55 PM 29.7 °F 24.7 °F 23.2 °F 77% 29.47 in 10.0 mi ENE 4.6 mph - N/A   Clear
9:55 PM 30.6 °F 24.7 °F 23.0 °F 74% 29.46 in 10.0 mi East 5.8 mph - N/A   Partly Cloudy
10:55 PM 28.0 °F - 23.7 °F 84% 29.45 in 10.0 mi Calm Calm - N/A   Partly Cloudy
11:55 PM 29.7 °F 24.7 °F 23.4 °F 77% 29.44 in 10.0 mi ENE 4.6 mph - N/A   Partly Cloudy